Probability
0 0 0 0 0 0 0 0 0 0 0 0 0 0 0 0 0 0 0 0 0 1 2 2 1 1 2 5 8 11 14 16 18 28 42 49 52 53 45 29 13 4 0 0
0 0 0 0 0 0 0 0 0 0 0 0 0 0 0 0 0 0 0 0 0 0 1 1 0 1 2 3 5 7 10 13 15 23 35 45 52 55 52 37 21 9 3 1
0 0 0 0 0 0 0 0 0 0 0 0 0 0 0 0 0 0 0 0 0 0 0 1 0 0 1 1 1 2 4 7 10 14 24 38 50 57 58 49 33 19 9 3
0 0 0 0 0 0 0 0 0 0 0 0 0 0 0 0 0 0 0 0 0 0 0 0 0 0 0 0 0 0 1 2 4 7 14 27 40 48 50 46 36 22 12 6
0 0 0 0 0 0 0 0 0 0 0 0 0 0 0 0 0 0 0 0 0 0 0 0 0 0 0 0 0 0 0 0 1 2 5 14 24 30 30 29 24 16 9 6
0 0 0 0 0 0 0 0 0 0 0 0 0 0 0 0 0 0 0 0 0 0 1 0 0 0 0 0 0 0 0 0 0 0 1 5 11 13 14 12 11 8 5 4
0 0 0 0 0 0 0 0 0 0 0 0 0 0 0 0 0 0 0 0 0 0 0 0 0 0 0 0 0 0 0 0 0 0 0 1 3 5 5 4 4 3 2 1
0 0 0 0 0 0 0 0 0 0 0 0 0 0 0 0 0 0 0 0 0 0 0 0 0 0 0 0 0 0 0 0 0 0 0 0 1 1 1 1 1 0 0 0
0 0 0 0 0 0 0 0 0 0 0 0 0 0 0 0 0 0 0 0 0 0 0 0 0 0 0 0 0 0 0 0 0 0 0 0 0 0 0 0 0 0 0 0
0 0 0 0 0 0 0 0 0 0 0 0 0 0 0 0 0 0 0 0 0 0 0 0 0 0 0 0 0 0 0 0 0 0 0 0 0 0 0 0 0 0 0 0
0 0 0 0 0 0 0 0 0 0 0 0 0 0 0 0 0 0 0 0 0 0 0 0 0 0 0 0 0 0 0 0 0 0 0 0 0 0 0 0 0 0 0 0
0 0 0 0 0 0 0 0 0 0 0 0 0 0 0 0 0 0 0 0 0 0 0 0 0 0 0 0 0 0 0 0 0 0 0 0 0 0 0 0 0 0 0 0
0 0 0 0 0 0 0 0 0 0 0 0 0 0 0 0 0 0 0 0 0 0 0 0 0 0 0 0 0 0 0 0 0 0 0 0 0 0 0 0 0 0 0 0
0 0 0 0 0 0 0 0 0 0 0 0 0 0 0 0 0 0 0 0 0 0 0 0 0 0 0 0 0 0 0 0 0 0 0 0 0 0 0 0 0 0 0 0
0 0 0 0 0 0 0 0 0 0 0 0 0 0 0 0 0 0 0 0 0 0 0 0 0 0 0 0 0 0 0 0 0 0 0 0 0 0 0 0 0 0 0 0
0 0 0 0 0 0 0 0 0 0 0 0 0 0 0 0 0 0 0 0 0 0 0 0 0 0 0 0 0 0 0 0 0 0 0 0 0 0 0 0 0 0 0 0
0 0 0 0 0 0 0 0 0 0 0 0 0 0 0 0 0 0 0 0 0 0 0 0 0 0 0 0 0 0 0 0 0 0 0 0 0 0 0 0 0 0 0 0
0 0 0 0 0 0 0 0 0 0 0 0 0 0 0 0 0 0 0 0 0 0 0 0 0 0 0 0 0 0 0 0 0 0 0 0 0 0 0 0 0 0 0 0
0 0 0 0 0 0 0 0 0 0 0 0 0 0 0 0 0 0 0 0 0 0 0 0 0 0 0 0 0 0 0 0 0 0 0 0 0 0 0 0 0 0 0 0
0 0 0 0 0 0 0 0 0 0 0 0 0 0 0 0 0 0 0 0 0 0 0 0 0 0 0 0 0 0 0 0 0 0 0 0 0 0 0 0 0 0 0 0
0 0 0 0 0 0 0 0 0 0 0 0 0 0 0 0 0 0 0 0 0 0 0 0 0 0 0 0 0 0 0 0 0 0 0 0 0 0 0 0 0 0 0 0
0 0 0 0 0 0 0 0 0 0 0 0 0 0 0 0 0 0 0 0 0 0 0 0 0 0 0 0 0 0 0 0 0 0 0 0 0 0 0 0 0 0 0 0
0 0 0 0 0 0 0 0 0 0 0 0 0 0 0 0 0 0 0 0 0 0 0 0 0 0 0 0 0 0 0 0 0 0 0 0 0 0 0 0 0 0 0 0
0 0 0 0 0 0 0 0 0 0 0 0 0 0 0 0 0 0 0 0 0 0 0 0 0 0 0 0 0 0 0 0 0 0 0 0 0 0 0 0 0 0 0 0
0 0 0 0 0 0 0 0 0 0 0 0 0 0 0 0 0 0 0 0 0 0 0 0 0 0 0 0 0 0 0 0 0 0 0 0 0 0 0 0 0 0 0 0
0 0 0 0 0 0 0 0 0 0 0 0 0 0 0 0 0 0 0 0 0 0 0 0 0 0 0 0 0 0 0 0 0 0 0 0 0 0 0 0 0 0 0 0
Wind_Speed
6 9 7 7 6 5 5 6 4 4 5 4 6 8 12 14 16 15 14 13 13 11 10 11 12 12 11 11 11 11 11 9 6 3 2 3 5 5 5 5 6 6 6 7
9 9 5 6 9 8 8 6 5 4 6 4 9 11 10 15 16 14 14 14 14 14 14 14 13 13 13 12 11 10 10 9 8 4 3 3 3 3 3 3 3 4 4 5
9 3 6 11 12 9 5 3 2 3 5 4 7 7 11 10 15 17 17 15 16 15 14 14 14 12 12 12 12 11 10 10 9 8 3 1 1 1 1 2 2 2 2 3
8 6 8 10 8 6 4 5 5 4 2 3 3 3 7 10 15 18 18 17 17 15 13 12 12 12 12 11 10 10 10 10 10 9 5 1 3 3 4 4 3 3 2 1
4 4 8 7 6 7 5 8 5 2 1 2 5 5 4 8 14 17 16 16 15 13 12 12 11 10 10 10 10 9 10 10 10 9 7 3 0 2 3 4 6 4 4 3
5 3 4 4 4 6 6 6 6 6 6 5 5 4 6 8 12 15 15 15 14 12 11 10 10 9 9 9 9 8 9 9 9 9 9 6 3 3 4 4 5 4 3 3
4 6 5 5 7 8 9 7 7 9 7 2 3 7 4 6 9 11 13 13 12 11 10 10 10 10 10 10 9 8 8 8 9 9 8 8 6 5 4 3 4 4 3 2
3 5 6 6 5 4 5 5 5 2 1 1 4 4 1 5 8 9 10 10 11 11 10 10 10 9 9 9 8 8 7 7 8 8 7 6 6 4 4 5 4 3 2 2
5 3 3 5 6 4 4 4 1 4 1 3 3 2 2 9 13 13 13 12 12 11 11 10 10 9 9 8 7 7 7 7 7 7 6 6 6 5 4 4 4 2 2 1
5 5 2 3 7 8 3 2 5 5 3 2 2 3 7 14 16 15 13 12 11 11 11 11 9 9 8 8 6 6 6 6 6 7 6 5 5 4 3 3 3 2 2 2
4 6 4 5 5 6 7 6 5 5 4 3 2 3 5 10 12 12 12 10 10 10 9 9 8 8 7 8 8 7 6 6 6 6 6 6 5 4 3 3 2 2 1 1
3 7 3 1 1 2 5 4 3 5 3 3 1 2 6 7 8 9 9 9 8 8 7 6 7 7 7 8 8 8 7 7 6 5 5 6 6 5 5 5 4 3 2 2
4 7 4 3 6 5 5 5 4 5 4 3 2 3 5 5 7 7 7 8 8 7 7 6 6 6 7 7 7 7 7 7 7 7 7 7 7 7 7 6 5 5 4 4
5 5 5 5 4 1 2 4 4 5 4 3 0 3 6 7 7 8 8 8 7 7 6 6 5 5 6 6 6 6 7 7 7 7 8 8 8 7 7 7 7 7 7 7
5 4 2 3 4 5 4 4 4 4 4 4 3 3 5 6 5 6 6 7 7 6 7 6 5 4 5 5 5 6 6 6 6 7 8 8 7 7 7 7 7 7 8 8
4 5 3 2 4 5 4 4 4 4 3 3 2 3 5 3 3 4 5 6 6 6 7 7 6 4 4 4 4 4 5 5 5 6 6 6 7 7 7 7 7 7 7 7
3 5 4 2 3 3 1 5 4 3 3 5 4 4 3 1 2 3 3 4 5 6 6 7 6 4 2 2 2 3 3 4 5 5 5 6 6 7 6 7 7 6 6 6
4 4 4 3 3 3 6 3 6 5 4 5 4 4 4 4 2 3 2 2 4 5 6 6 6 4 3 1 1 1 2 3 4 4 5 5 5 6 6 6 6 5 4 4
4 5 4 4 3 1 2 4 5 5 3 4 3 3 4 3 2 4 3 1 2 3 3 4 4 3 2 1 0 1 2 2 3 4 4 4 4 5 5 6 5 4 4 4
4 5 4 3 3 6 8 6 5 5 2 4 4 4 5 4 2 4 4 2 3 3 4 4 5 4 4 3 1 2 1 1 2 2 2 3 3 4 5 5 4 4 4 4
1 2 2 3 3 6 4 6 7 5 8 6 6 6 6 5 5 5 3 2 3 3 4 5 5 5 5 3 0 1 1 2 2 1 3 3 4 4 4 5 4 5 5 6
7 5 4 4 3 7 6 8 8 9 4 7 7 6 5 4 3 1 0 2 3 4 5 5 5 6 6 4 1 1 2 3 1 1 3 4 4 4 5 5 5 5 6 6
6 8 7 8 8 6 8 8 7 6 7 6 7 6 5 4 2 1 1 2 3 4 4 4 4 6 6 5 3 2 4 2 1 3 4 4 4 5 5 5 5 5 5 4
3 3 4 2 4 4 5 4 5 6 7 7 7 6 6 5 3 2 1 1 3 4 4 4 5 6 6 6 5 4 4 2 3 4 4 4 4 4 4 4 4 4 4 4
6 5 3 3 3 3 4 5 7 7 7 7 6 6 6 5 3 3 2 0 1 2 3 3 4 4 5 5 5 6 4 3 3 4 4 4 3 3 4 4 3 3 3 2
6 8 8 9 9 9 10 9 8 9 9 9 8 6 5 5 4 4 3 1 0 1 2 4 5 4 4 4 5 6 5 2 3 3 3 3 3 3 3 3 2 4 3 5
Wind_Direction
50 51 47 47 54 70 65 66 33 19 6 33 66 57 47 39 41 36 27 21 13 9 8 14 22 23 22 20 15 11 5 359 354 336 248 212 208 199 193 194 187 185 182 178
53 39 35 54 41 45 51 54 18 335 348 32 82 64 51 44 37 29 21 13 5 2 8 10 13 17 16 13 8 5 358 349 345 324 274 239 221 206 186 176 164 166 169 172
87 16 26 44 31 19 17 50 349 313 348 21 103 60 29 28 28 22 16 9 4 4 5 3 4 8 9 8 3 358 351 346 342 333 311 281 128 94 116 146 162 141 153 170
68 10 31 38 19 6 323 316 314 306 15 326 62 107 22 360 13 12 5 1 356 353 358 360 1 2 3 360 357 354 351 350 347 343 335 276 194 187 184 166 163 134 126 151
78 40 40 26 352 353 299 300 303 294 154 44 16 100 21 357 5 357 353 353 348 349 351 356 358 356 356 354 354 352 352 355 353 352 349 343 154 162 142 138 137 129 122 115
64 53 52 353 332 342 331 355 28 44 69 55 346 87 41 9 349 340 343 344 342 347 349 352 353 353 352 351 353 353 355 357 357 0 4 10 36 87 123 133 141 141 134 130
38 13 6 3 1 356 20 43 32 21 28 33 32 75 61 351 343 334 335 336 340 347 349 350 355 354 351 349 351 354 359 0 358 5 13 19 30 50 82 108 123 131 133 140
96 11 14 19 12 346 10 75 106 117 286 331 35 71 134 350 339 336 339 340 348 350 351 352 353 351 346 346 350 353 360 2 0 6 12 21 31 42 50 60 80 94 103 131
121 96 84 55 25 43 19 10 153 146 52 67 54 55 309 346 348 349 350 352 356 352 354 355 354 351 349 346 352 355 2 5 4 7 14 23 33 45 56 60 64 70 71 91
123 114 45 24 19 13 49 21 55 67 73 48 29 24 341 334 337 340 345 348 348 349 353 356 354 351 351 349 353 2 9 10 9 11 15 22 25 34 45 55 57 56 46 45
83 106 14 25 29 4 4 20 60 76 88 98 23 350 329 317 321 325 331 336 337 339 341 344 345 345 351 0 8 11 9 11 13 15 15 18 16 20 30 34 23 20 16 9
61 102 77 30 315 56 46 27 81 102 62 64 88 318 307 309 311 315 319 323 327 331 335 337 341 348 359 10 12 13 13 15 8 8 17 19 19 25 30 28 20 16 7 360
86 102 93 353 341 3 31 16 66 101 96 64 56 320 312 317 316 317 317 321 324 328 334 339 345 352 358 7 10 12 14 17 14 17 24 27 27 30 29 24 25 34 40 46
99 88 135 162 205 182 73 37 55 88 99 105 27 286 309 323 329 329 329 328 328 333 340 352 354 354 358 2 3 8 13 17 23 25 29 31 28 27 29 32 37 40 45 55
92 100 132 162 159 128 125 111 87 92 136 141 212 256 279 295 304 314 323 332 349 354 0 4 360 357 358 4 7 12 15 15 21 29 31 27 26 30 36 41 43 46 51 55
90 125 129 145 158 132 124 140 124 118 140 158 206 258 256 277 306 321 329 343 359 1 4 3 2 5 5 11 14 18 19 15 23 32 28 23 28 32 35 38 43 49 49 48
86 119 121 188 172 112 175 192 172 164 178 175 196 229 235 253 293 304 327 358 3 360 358 358 358 357 357 1 22 25 20 26 33 30 24 23 28 33 30 36 41 42 42 44
114 106 120 129 136 236 249 210 160 162 191 204 214 218 205 205 247 291 299 359 355 353 354 350 347 349 346 359 5 27 40 42 37 27 23 24 32 35 31 36 37 35 35 40
120 126 111 116 148 269 265 197 172 168 214 214 194 189 179 180 30 337 308 312 328 336 340 332 332 332 341 337 255 101 55 36 33 23 21 25 39 40 36 32 26 23 34 35
64 87 105 122 158 229 237 203 159 116 228 224 165 158 163 131 80 278 287 313 339 339 336 336 338 348 351 323 264 114 81 14 358 357 27 47 54 50 42 32 26 26 40 41
12 40 117 173 218 254 239 149 117 156 227 197 160 154 151 168 200 237 275 349 353 340 336 347 352 348 334 320 303 130 254 275 277 351 53 60 58 58 52 43 37 41 46 44
175 173 200 170 204 251 189 141 175 210 176 149 149 156 157 182 203 210 46 23 9 351 345 352 353 342 336 342 7 329 293 277 287 77 76 66 55 59 60 53 42 37 41 43
185 186 184 185 211 231 178 185 197 157 149 154 155 160 153 154 158 141 102 25 1 354 349 346 351 348 351 1 24 1 311 305 107 104 101 93 74 60 57 58 51 40 35 40
257 149 135 206 254 201 186 170 154 154 155 160 155 151 147 152 150 132 143 359 354 349 345 346 356 0 353 354 11 2 343 26 112 122 124 119 98 77 59 51 47 49 37 35
223 169 163 220 229 172 218 193 166 151 145 146 147 147 153 152 149 156 177 259 349 350 340 349 355 349 345 355 3 359 2 49 100 123 131 131 123 112 87 64 46 48 32 27
197 175 176 211 198 178 204 199 170 154 161 159 154 157 161 161 166 165 186 213 215 348 346 352 350 346 344 357 357 354 358 50 113 123 134 144 147 139 125 111 67 25 9 8